Location: Hylvaty SDH
(49.9612°N, 16.4057°E)
Time: 12:46:07
(UTC+01:00)

A-11 Canister half - Pass Details

Date: 08 October 2020
Orbit: 1526 x 1683 km, 47.3° (Epoch: 28 October)

Event Time Altitude Azimuth Distance (km) Brightness Sun altitude
Rises 21:24:44 0° 236° (SW) 4,677 11.9 -30.1°
Reaches altitude 10° 21:27:49 10° 232° (SW) 3,690 11.2 -30.5°
Enters shadow 21:36:22 59° 169° (SSE) 1,734 8.9 -31.7°
Maximum altitude 21:36:50 59° 156° (SSE) 1,726 - -31.8°
Drops below altitude 10° 21:45:58 10° 81° (E) 3,731 - -33.0°
Sets 21:49:06 0° 78° (ENE) 4,732 - -33.4°
